User: anonymous   Login
Location: Unspecified
(0.0000°N, 0.0000°E)
Time: 01:56:24
(UTC+00:00)
Language:

Meteosat 1 - Orbit

View from above orbital plane
View from above orbital plane
View from above satellite
View from above satellite

Ground track
Ground track

The orbit data is extracted from the following two-line orbital elements,

1 10489U 77108A   17146.58742470 +.00000057 +00000-0 +00000-0 0  9993
2 10489 012.4297 320.9868 0012567 358.7077 188.1998 01.00373703104073
Epoch (UTC): 26 May 2017 14:05:53
Eccentricity: 0.0012567
inclination: 12.4297°
perigee height: 35705 km
apogee height: 35810 km
right ascension of ascending node: 320.9868°
argument of perigee: 358.7077°
revolutions per day: 1.00373703
mean anomaly at epoch: 188.1998°
orbit number at epoch: 10407

The dashed part of the orbit path shows where the satellite is in the earth's shadow,  

DLR